Weather History for K0A9 - June, 2012

Change the Weather History Date:

Wednesday, June 27, 2012

  Actual Average (KTRI) Record (KTRI)
Temperature  
Mean Temperature 66 °F 74 °F  
Max Temperature 86 °F 85 °F 97 °F (1954)
Min Temperature 46 °F 63 °F 49 °F (1979)
Degree Days  
Heating Degree Days 0 0  
Month to date heating degree days 9  
Since 1 June heating degree days 9  
Since 1 July heating degree days 4372  
Cooling Degree Days 1 9  
Month to date cooling degree days 179  
Year to date cooling degree days 252  
Since 1 June cooling degree days 179  
Growing Degree Days 16 (Base 50)    
Moisture  
Dew Point 48 °F    
Average Humidity 57    
Maximum Humidity 93    
Minimum Humidity 25    
Precipitation  
Precipitation 0.00 in 0.13 in 1.35 in (1974)
Month to date precipitation 3.49  
Year to date precipitation 20.88  
Snow  
Snow 0.00 in 0.00 in - ()
Month to date snowfall 0.0  
Since 1 June snowfall 0.0  
Since 1 July snowfall 13.3  
Snow Depth -    
Sea Level Pressure  
Sea Level Pressure 30.03 in    
Wind  
Wind Speed 1 mph (WNW)    
Max Wind Speed 8 mph    
Max Gust Speed -    
Visibility 10 miles    
Events Rain    
T = Trace of Precipitation, MM = Missing Value Source: NWS Daily Summary

Daily Weather History Graph

Daily Weather History Graph

Search for Another Location

Airport or City:

Trip Planner

Search our weather history database for the weather conditions in past years. The results will help you decide how hot, cold, wet, or windy it might be!

Date:

Astronomy

Jun. 27, 2012 Rise Set
Actual Time 6:13 AM EDT 8:50 PM EDT
Civil Twilight 5:42 AM EDT 9:20 PM EDT
Nautical Twilight 5:04 AM EDT 9:58 PM EDT
Astronomical Twilight 4:22 AM EDT 10:40 PM EDT
Moon 2:20 PM EDT (6/27) 1:03 AM EDT (6/27)
Length of Visible Light 15h 38m
Length of Day
14h 37m
First Quarter, 56% of the Moon is Illuminated
Jun 27
First Quarter
Jul 3
Full
Jul 10
Last Quarter
Jul 19
New
Jul 26
First Quarter

Hourly Weather History & Observations

Time (EDT) Temp. Dew Point Humidity Pressure Visibility Wind Dir Wind Speed Gust Speed Precip Events Conditions
12:35 AM 55.4 °F 46.4 °F 72% 29.98 in 10.0 mi Calm Calm - N/A   Clear
12:55 AM 55.4 °F 46.4 °F 72% 29.98 in 10.0 mi Calm Calm - N/A   Clear
1:15 AM 53.6 °F 48.2 °F 82% 29.98 in 10.0 mi Calm Calm - N/A   Clear
1:35 AM 53.6 °F 46.4 °F 77% 29.98 in 10.0 mi Calm Calm - N/A   Clear
1:55 AM 51.8 °F 46.4 °F 82% 29.98 in 10.0 mi Calm Calm - N/A   Clear
2:15 AM 51.8 °F 46.4 °F 82% 29.98 in 10.0 mi Calm Calm - N/A   Clear
2:35 AM 51.8 °F 46.4 °F 82% 29.98 in 10.0 mi Calm Calm - N/A   Clear
2:55 AM 50.0 °F 46.4 °F 87% 29.98 in 10.0 mi Calm Calm - N/A   Clear
3:15 AM 50.0 °F 46.4 °F 87% 29.98 in 10.0 mi Calm Calm - N/A   Clear
3:35 AM 50.0 °F 46.4 °F 87% 29.98 in 10.0 mi Calm Calm - N/A   Clear
3:55 AM 48.2 °F 46.4 °F 93% 29.97 in 10.0 mi Calm Calm - N/A   Clear
4:15 AM 48.2 °F 46.4 °F 93% 29.97 in 10.0 mi Calm Calm - N/A   Clear
4:35 AM 48.2 °F 46.4 °F 93% 29.98 in 10.0 mi Calm Calm - N/A   Clear
4:55 AM 48.2 °F 46.4 °F 93% 29.99 in 10.0 mi Calm Calm - N/A   Clear
5:15 AM 48.2 °F 46.4 °F 93% 30.00 in 10.0 mi Calm Calm - N/A   Clear
5:35 AM 48.2 °F 46.4 °F 93% 30.00 in 10.0 mi Calm Calm - N/A   Clear
5:55 AM 48.2 °F 46.4 °F 93% 30.00 in 10.0 mi Calm Calm - N/A   Clear
6:15 AM 46.4 °F 44.6 °F 93% 30.01 in 10.0 mi Calm Calm - N/A   Clear
6:35 AM 48.2 °F 46.4 °F 93% 30.01 in 10.0 mi Calm Calm - N/A   Clear
6:55 AM 48.2 °F 46.4 °F 93% 30.02 in 10.0 mi Calm Calm - N/A   Clear
7:15 AM 53.6 °F 48.2 °F 82% 30.03 in 10.0 mi Calm Calm - N/A   Clear
7:35 AM 55.4 °F 48.2 °F 77% 30.04 in 10.0 mi Calm Calm - N/A Rain Light Rain
7:55 AM 59.0 °F 50.0 °F 72% 30.05 in 10.0 mi Calm Calm - N/A Rain Light Rain
8:35 AM 60.8 °F 48.2 °F 63% 30.06 in 10.0 mi Calm Calm - N/A Rain Light Rain
8:55 AM 62.6 °F 48.2 °F 59% 30.07 in 10.0 mi Calm Calm - N/A   Clear
9:15 AM 64.4 °F 48.2 °F 56% 30.07 in 10.0 mi Calm Calm - N/A   Clear
9:35 AM 66.2 °F 48.2 °F 52% 30.07 in 9.0 mi Calm Calm - N/A Rain Light Rain
9:55 AM 69.8 °F 48.2 °F 46% 30.07 in 10.0 mi Calm Calm - N/A   Clear
10:15 AM 69.8 °F 46.4 °F 43% 30.08 in 10.0 mi Calm Calm - N/A   Clear
10:35 AM 71.6 °F 46.4 °F 41% 30.08 in 10.0 mi Calm Calm - N/A   Clear
10:55 AM 71.6 °F 48.2 °F 43% 30.08 in 10.0 mi Calm Calm - N/A   Clear
11:15 AM 73.4 °F 50.0 °F 44% 30.08 in 10.0 mi Variable 3.5 mph - N/A   Clear
11:35 AM 73.4 °F 48.2 °F 41% 30.08 in 10.0 mi Variable 5.8 mph - N/A   Clear
11:55 AM 75.2 °F 48.2 °F 38% 30.08 in 10.0 mi Variable 3.5 mph - N/A   Clear
12:15 PM 75.2 °F 48.2 °F 38% 30.08 in 10.0 mi Variable 4.6 mph - N/A   Clear
12:35 PM 77.0 °F 48.2 °F 36% 30.07 in 10.0 mi SW 8.1 mph - N/A   Clear
12:55 PM 78.8 °F 44.6 °F 30% 30.07 in 10.0 mi Variable 4.6 mph - N/A   Clear
1:15 PM 80.6 °F 44.6 °F 28% 30.07 in 10.0 mi Variable 3.5 mph - N/A   Clear
1:35 PM 78.8 °F 42.8 °F 28% 30.06 in 10.0 mi North 8.1 mph - N/A   Clear
1:55 PM 80.6 °F 42.8 °F 26% 30.06 in 10.0 mi North 8.1 mph - N/A   Clear
2:15 PM 80.6 °F 42.8 °F 26% 30.06 in 10.0 mi Variable 5.8 mph - N/A   Clear
2:35 PM 80.6 °F 42.8 °F 26% 30.05 in 10.0 mi Calm Calm - N/A   Clear
2:55 PM 82.4 °F 44.6 °F 26% 30.04 in 10.0 mi Variable 5.8 mph - N/A   Clear
3:15 PM 82.4 °F 44.6 °F 26% 30.04 in 10.0 mi Variable 3.5 mph - N/A   Clear
3:35 PM 82.4 °F 44.6 °F 26% 30.03 in 10.0 mi NNW 5.8 mph - N/A   Clear
3:55 PM 82.4 °F 44.6 °F 26% 30.03 in 10.0 mi Variable 4.6 mph - N/A   Clear
4:15 PM 82.4 °F 44.6 °F 26% 30.03 in 10.0 mi Variable 3.5 mph - N/A   Clear
4:35 PM 84.2 °F 44.6 °F 25% 30.03 in 10.0 mi Calm Calm - N/A   Clear
4:55 PM 84.2 °F 46.4 °F 27% 30.02 in 10.0 mi Variable 5.8 mph - N/A   Clear
5:15 PM 86.0 °F 46.4 °F 25% 30.02 in 10.0 mi Calm Calm - N/A   Clear
5:35 PM 84.2 °F 46.4 °F 27% 30.02 in 10.0 mi WSW 8.1 mph - N/A   Clear
5:55 PM 84.2 °F 44.6 °F 25% 30.02 in 10.0 mi SW 6.9 mph - N/A   Clear
6:15 PM 84.2 °F 46.4 °F 27% 30.02 in 10.0 mi West 8.1 mph - N/A   Clear
6:35 PM 84.2 °F 46.4 °F 27% 30.02 in 10.0 mi West 4.6 mph - N/A   Clear
6:55 PM 82.4 °F 46.4 °F 28% 30.02 in 10.0 mi West 4.6 mph - N/A   Clear
7:15 PM 82.4 °F 46.4 °F 28% 30.03 in 10.0 mi West 4.6 mph - N/A   Clear
7:35 PM 82.4 °F 48.2 °F 30% 30.02 in 10.0 mi Calm Calm - N/A   Clear
7:55 PM 77.0 °F 55.4 °F 47% 30.02 in 10.0 mi Calm Calm - N/A   Clear
8:15 PM 71.6 °F 53.6 °F 53% 30.02 in 10.0 mi North 3.5 mph - N/A   Clear
8:35 PM 68.0 °F 53.6 °F 60% 30.03 in 10.0 mi NNW 3.5 mph - N/A   Clear
8:55 PM 66.2 °F 53.6 °F 64% 30.03 in 10.0 mi Calm Calm - N/A   Clear
9:15 PM 66.2 °F 51.8 °F 60% 30.05 in 10.0 mi Calm Calm - N/A   Clear
9:35 PM 64.4 °F 53.6 °F 68% 30.05 in 10.0 mi Calm Calm - N/A   Clear
9:55 PM 62.6 °F 51.8 °F 68% 30.06 in 10.0 mi Calm Calm - N/A   Clear
10:15 PM 62.6 °F 50.0 °F 63% 30.06 in 10.0 mi Calm Calm - N/A   Clear
10:35 PM 60.8 °F 51.8 °F 72% 30.06 in 10.0 mi Calm Calm - N/A   Clear
10:55 PM 60.8 °F 51.8 °F 72% 30.07 in 10.0 mi Calm Calm - N/A   Clear
11:15 PM 59.0 °F 51.8 °F 77% 30.07 in 10.0 mi Calm Calm - N/A   Clear
11:35 PM 59.0 °F 50.0 °F 72% 30.08 in 10.0 mi Calm Calm - N/A   Clear
11:55 PM 59.0 °F 51.8 °F 77% 30.08 in 10.0 mi Calm Calm - N/A   Clear